R/V Knorr Calliope CSV data file - KN193_II  (Time stamps are GMT)
Date, Time_GMT, Depth12, Depth35, Air_Temp, WXT5_Ta, WXT5_Pa, dec_lat, dec_lon, EDO_knt, GPS_COG, GPS_SOG, Gyro, IMET_BPR, IMET_SWR, WXT5_Ri, WXT5_Rc, HRH, WXT5_Ua, WXT5_Dm, WXT5_Sm, SBE45C, SBE45S, SBE45T, Salinity, SSCND, Fluorometer, SSTMP, SSV, Wnd_Dir, TWD_5, Wnd_Spd, TWS_5, HdChkSum=52
2008/04/22, 00:00:43, 1343.00, 0.00, 0.64, 1.00, 1016.3, 68.0704170, -14.3284970, , 156.50, 12.46, 153.70, 1017.33, 0.10, 0.0, 38.72, 91.87, 96.2, 346, 12.6, 30.95300, 34.44210, 2.7124, 34.4421, 30.9530, 95.50, 0.6512, 1451.36, 160.00, 121.1, 5.43, 6.7, 52
2008/04/22, 00:01:43, 1343.00, 0.00, 0.62, 1.00, 1016.4, 68.0672480, -14.3244050, , 152.60, 12.31, 151.80, 1017.41, -0.10, 0.0, 38.72, 91.73, 96.2, 349, 13.0, 30.94200, 34.44170, 2.7001, 34.4417, 30.9420, 95.80, 0.6323, 1451.27, 156.60, 124.5, 5.41, 7.0, 52
2008/04/22, 00:02:43, 0.00, 0.00, 0.64, 1.00, 1016.5, 68.0641950, -14.3203830, , 154.70, 12.37, 153.60, 1017.43, 0.00, 0.0, 38.72, 91.68, 96.2, 345, 12.2, 30.93470, 34.44290, 2.6907, 34.4429, 30.9347, 96.10, 0.6159, 1451.20, 160.10, 117.8, 5.41, 6.3, 52
2008/04/22, 00:03:43, 1343.00, 0.00, 0.62, 1.10, 1016.4, 68.0611130, -14.3162600, , 151.50, 12.51, 152.90, 1017.44, 0.00, 0.0, 38.72, 91.75, 96.1, 341, 9.9, 30.93980, 34.44360, 2.6959, 34.4436, 30.9398, 94.80, 0.6032, 1451.14, 156.50, 99.5, 5.64, 4.7, 52
2008/04/22, 00:04:43, 1337.00, 0.00, 0.45, 1.10, 1016.4, 68.0579470, -14.3122720, , 154.10, 12.56, 153.20, 1017.51, 0.30, 0.0, 38.72, 91.77, 96.1, 341, 10.9, 30.92880, 34.44030, 2.6864, 34.4403, 30.9288, 94.60, 0.5950, 1451.10, 160.00, 105.4, 5.27, 5.5, 52
2008/04/22, 00:05:43, 1337.00, 0.00, 0.64, 1.10, 1016.4, 68.0548650, -14.3081700, , 154.80, 12.61, 151.80, 1017.51, 0.20, 0.0, 38.72, 91.77, 96.1, 344, 11.5, 30.94260, 34.44310, 2.6996, 34.4431, 30.9426, 94.60, 0.5877, 1451.07, 155.70, 113.3, 5.38, 5.8, 52
2008/04/22, 00:06:43, 1348.00, 0.00, 0.62, 1.10, 1016.3, 68.0518370, -14.3041480, , 153.70, 12.37, 153.30, 1017.42, 0.00, 0.0, 38.72, 91.68, 96.1, 346, 13.0, 30.93720, 34.44090, 2.6954, 34.4409, 30.9372, 96.10, 0.5835, 1451.05, 159.40, 122.3, 5.55, 7.1, 52
2008/04/22, 00:07:44, 1332.00, 0.00, 0.70, 1.10, 1016.3, 68.0487650, -14.2999950, , 155.60, 12.32, 154.70, 1017.42, 0.00, 0.0, 38.72, 91.80, 96.1, 347, 12.9, 30.92470, 34.44240, 2.6797, 34.4424, 30.9247, 98.00, 0.5810, 1451.04, 158.80, 125.0, 5.68, 7.0, 52
2008/04/22, 00:08:44, 0.00, 0.00, 0.59, 1.10, 1016.3, 68.0456730, -14.2960230, , 151.70, 12.54, 151.40, 1017.33, 0.00, 0.0, 38.72, 91.80, 96.1, 344, 12.6, 30.90670, 34.44030, 2.6611, 34.4403, 30.9067, 98.20, 0.5812, 1451.04, 149.60, 114.7, 5.71, 7.0, 52
2008/04/22, 00:09:43, 0.00, 0.00, 0.56, 1.10, 1016.3, 68.0426100, -14.2918220, , 155.00, 12.38, 154.10, 1017.33, 0.10, 0.0, 38.72, 91.73, 96.1, 345, 12.9, 30.88270, 34.43950, 2.6343, 34.4395, 30.8827, 95.20, 0.5833, 1451.05, 152.80, 120.1, 5.79, 7.2, 52
2008/04/22, 00:10:43, 1334.00, 0.00, 0.64, 1.10, 1016.4, 68.0394480, -14.2877230, , 154.30, 12.55, 152.50, 1017.48, -0.10, 0.0, 38.72, 91.82, 96.1, 340, 11.1, 30.86530, 34.43840, 2.6154, 34.4384, 30.8653, 96.40, 0.5869, 1451.07, 156.00, 103.7, 5.41, 5.4, 52
2008/04/22, 00:11:43, 1332.00, 0.00, 0.59, 1.00, 1016.2, 68.0364170, -14.2836220, , 154.00, 12.69, 153.20, 1017.40, -0.20, 0.0, 38.72, 91.80, 96.1, 343, 13.7, 30.85000, 34.44180, 2.5947, 34.4418, 30.8500, 95.20, 0.5897, 1451.08, 154.50, 118.1, 5.72, 7.9, 52
2008/04/22, 00:12:43, 1333.00, 0.00, 0.67, 1.00, 1016.2, 68.0333400, -14.2794030, , 154.30, 12.37, 152.60, 1017.44, -0.10, 0.0, 38.72, 91.65, 96.1, 345, 11.8, 30.84780, 34.44090, 2.5931, 34.4409, 30.8478, 94.80, 0.5894, 1451.08, 155.80, 117.0, 5.77, 5.9, 52
2008/04/22, 00:13:43, 1328.00, 0.00, 0.59, 1.00, 1016.3, 68.0301900, -14.2752520, , 154.80, 12.76, 154.00, 1017.38, -0.10, 0.0, 38.72, 91.75, 96.1, 340, 11.9, 30.83500, 34.44280, 2.5766, 34.4428, 30.8350, 94.00, 0.5902, 1451.08, 156.40, 107.8, 5.50, 6.3, 52
2008/04/22, 00:14:43, 1326.00, 0.00, 0.67, 1.00, 1016.2, 68.0271630, -14.2711650, , 153.10, 12.66, 153.30, 1017.31, 0.00, 0.0, 38.72, 91.73, 96.0, 345, 13.2, 30.84310, 34.44120, 2.5874, 34.4412, 30.8431, 92.80, 0.5909, 1451.09, 151.10, 119.1, 5.89, 7.4, 52
2008/04/22, 00:15:44, 1318.00, 0.00, 0.62, 1.00, 1016.4, 68.0240450, -14.2672530, , 155.30, 12.64, 152.90, 1017.27, 0.10, 0.0, 38.72, 91.63, 96.0, 340, 11.8, 30.83630, 34.44160, 2.5793, 34.4416, 30.8363, 92.10, 0.5906, 1451.09, 156.70, 108.8, 5.91, 6.3, 52
2008/04/22, 00:16:43, 1316.00, 0.00, 0.59, 1.00, 1016.1, 68.0209130, -14.2630350, , 153.80, 12.19, 153.20, 1017.41, -0.10, 0.0, 38.72, 91.65, 96.0, 347, 14.4, 30.85330, 34.44350, 2.5970, 34.4435, 30.8533, 92.40, 0.5878, 1451.07, 153.90, 126.0, 5.57, 8.3, 52
2008/04/22, 00:17:43, 0.00, 0.00, 0.67, 1.00, 1016.4, 68.0178850, -14.2589600, , 153.70, 12.29, 153.50, 1017.40, 0.10, 0.0, 38.72, 91.65, 96.0, 344, 13.4, 30.84910, 34.44200, 2.5936, 34.4420, 30.8491, 91.80, 0.5812, 1451.04, 156.40, 119.5, 6.01, 7.6, 52
2008/04/22, 00:18:44, 0.00, 0.00, 0.56, 1.00, 1016.4, 68.0147750, -14.2549280, , 153.00, 12.27, 152.00, 1017.41, 0.10, 0.0, 38.72, 91.75, 96.0, 346, 12.6, 30.85630, 34.44350, 2.6003, 34.4435, 30.8563, 91.80, 0.5717, 1451.00, 153.50, 119.5, 5.58, 6.7, 52
2008/04/22, 00:19:43, 1315.00, 0.00, 0.56, 1.00, 1016.2, 68.0116700, -14.2508650, , 152.30, 12.31, 153.10, 1017.41, -0.20, 0.0, 38.72, 91.61, 96.0, 344, 12.8, 30.86750, 34.44210, 2.6145, 34.4421, 30.8675, 92.40, 0.5610, 1450.95, 154.10, 116.2, 5.83, 7.4, 52
2008/04/22, 00:20:43, 1316.00, 0.00, 0.62, 1.00, 1016.3, 68.0085180, -14.2466930, , 155.10, 12.66, 152.40, 1017.40, 0.20, 0.0, 38.72, 91.68, 96.0, 341, 12.3, 30.87270, 34.44580, 2.6171, 34.4458, 30.8727, 92.10, 0.5478, 1450.89, 153.60, 110.9, 5.84, 6.9, 52
2008/04/22, 00:21:43, 1316.00, 0.00, 0.62, 1.00, 1016.2, 68.0054150, -14.2427470, , 155.70, 12.51, 153.20, 1017.31, -0.30, 0.0, 38.72, 91.63, 96.0, 346, 14.1, 30.86760, 34.44210, 2.6145, 34.4421, 30.8676, 92.80, 0.5328, 1450.83, 152.20, 123.4, 5.98, 8.3, 52
2008/04/22, 00:22:43, 1314.00, 0.00, 0.62, 1.00, 1016.2, 68.0023930, -14.2387320, , 155.40, 12.28, 153.70, 1017.37, 0.10, 0.0, 38.72, 91.68, 96.0, 344, 12.4, 30.87040, 34.44210, 2.6178, 34.4421, 30.8704, 93.30, 0.5212, 1450.77, 154.10, 118.8, 6.13, 6.7, 52
2008/04/22, 00:23:44, 0.00, 0.00, 0.59, 1.00, 1016.2, 67.9992850, -14.2347600, , 154.30, 12.55, 153.50, 1017.36, -0.10, 0.0, 38.72, 91.65, 96.0, 348, 13.4, 30.88500, 34.44300, 2.6337, 34.4430, 30.8850, 93.60, 0.5154, 1450.75, 153.00, 125.3, 5.87, 7.7, 52
2008/04/22, 00:24:44, 1312.00, 0.00, 0.59, 1.00, 1016.4, 67.9961770, -14.2308180, , 156.20, 12.42, 153.70, 1017.30, 0.10, 0.0, 38.72, 91.63, 96.0, 345, 12.2, 30.87650, 34.44430, 2.6228, 34.4443, 30.8765, 93.60, 0.5077, 1450.71, 155.70, 116.2, 5.89, 6.5, 52
2008/04/22, 00:25:44, 1311.00, 0.00, 0.67, 1.00, 1016.4, 67.9930680, -14.2268520, , 153.40, 12.10, 152.90, 1017.34, -0.10, 0.0, 38.72, 91.61, 96.0, 348, 14.0, 30.86920, 34.44280, 2.6158, 34.4428, 30.8692, 94.00, 0.5003, 1450.68, 158.80, 127.0, 5.96, 8.0, 52
2008/04/22, 00:26:43, 1310.00, 0.00, 0.62, 1.10, 1016.4, 67.9899550, -14.2229370, , 153.70, 12.07, 151.90, 1017.42, 0.00, 0.0, 38.72, 91.73, 96.0, 342, 11.0, 30.87020, 34.44460, 2.6153, 34.4446, 30.8702, 93.30, 0.4940, 1450.65, 157.70, 107.5, 6.07, 5.7, 52
2008/04/22, 00:27:44, 1307.00, 0.00, 0.64, 1.10, 1016.4, 67.9868350, -14.2190330, , 154.20, 12.34, 154.10, 1017.37, 0.20, 0.0, 38.72, 91.58, 95.9, 344, 13.3, 30.85540, 34.44490, 2.5980, 34.4449, 30.8554, 95.20, 0.4878, 1450.62, 157.00, 117.5, 5.56, 7.7, 52
2008/04/22, 00:28:44, 1306.00, 0.00, 0.62, 1.10, 1016.3, 67.9837080, -14.2151900, , 155.10, 12.54, 152.50, 1017.29, 0.00, 0.0, 38.72, 91.63, 96.0, 343, 12.1, 30.85060, 34.44380, 2.5936, 34.4438, 30.8506, 95.80, 0.4813, 1450.59, 158.10, 114.2, 5.91, 6.4, 52
2008/04/22, 00:29:43, 1303.00, 0.00, 0.67, 1.10, 1016.3, 67.9805520, -14.2114530, , 157.00, 12.59, 154.30, 1017.35, 0.00, 0.0, 38.72, 91.61, 95.9, 348, 14.1, 30.82770, 34.44220, 2.5688, 34.4422, 30.8277, 96.70, 0.4770, 1450.57, 160.30, 126.3, 5.47, 8.0, 52
2008/04/22, 00:30:43, 1294.00, 0.00, 0.67, 1.10, 1016.2, 67.9774120, -14.2076980, , 153.50, 12.67, 152.50, 1017.34, -0.10, 0.0, 38.72, 91.68, 96.0, 348, 14.3, 30.81930, 34.44140, 2.5600, 34.4414, 30.8193, 98.80, 0.4744, 1450.56, 155.80, 124.9, 5.68, 8.2, 52
2008/04/22, 00:31:43, 1293.00, 0.00, 0.62, 1.10, 1016.2, 67.9742750, -14.2038870, , 153.30, 12.35, 151.20, 1017.27, -0.10, 0.0, 38.72, 91.56, 95.9, 347, 13.6, 30.80520, 34.44240, 2.5428, 34.4424, 30.8052, 98.00, 0.4731, 1450.56, 156.30, 121.0, 5.84, 7.9, 52
2008/04/22, 00:32:43, 1289.00, 0.00, 0.62, 1.10, 1016.3, 67.9710820, -14.2000580, , 154.90, 12.62, 153.50, 1017.29, -0.10, 0.0, 38.72, 91.63, 95.9, 342, 11.4, 30.80030, 34.44640, 2.5336, 34.4464, 30.8003, 96.40, 0.4755, 1450.57, 154.00, 107.0, 5.60, 6.2, 52
2008/04/22, 00:33:43, 1293.00, 0.00, 0.64, 1.10, 1016.2, 67.9679900, -14.1963920, , 157.10, 12.66, 152.70, 1017.30, -0.20, 0.0, 38.72, 91.63, 95.9, 346, 13.8, 30.80350, 34.44560, 2.5379, 34.4456, 30.8035, 95.20, 0.4815, 1450.60, 156.80, 123.0, 5.82, 8.1, 52
2008/04/22, 00:34:43, 1287.00, 0.00, 0.67, 1.10, 1016.2, 67.9648050, -14.1926050, , 156.20, 12.27, 153.20, 1017.24, 0.00, 0.0, 38.72, 91.63, 95.9, 342, 11.8, 30.80500, 34.44410, 2.5411, 34.4441, 30.8050, 95.50, 0.4901, 1450.63, 154.30, 110.2, 6.18, 6.7, 52
2008/04/22, 00:35:43, 1287.00, 0.00, 0.70, 1.10, 1016.2, 67.9617520, -14.1888000, , 153.70, 12.20, 152.40, 1017.23, -0.20, 0.0, 38.72, 91.58, 95.9, 345, 12.8, 30.79050, 34.44610, 2.5226, 34.4461, 30.7905, 94.80, 0.4993, 1450.67, 151.70, 115.8, 5.64, 7.2, 52
2008/04/22, 00:36:44, 1286.00, 0.00, 0.64, 1.10, 1016.3, 67.9586400, -14.1849650, , 156.30, 12.46, 153.70, 1017.25, -0.10, 0.0, 38.72, 91.53, 95.9, 341, 12.0, 30.78940, 34.43970, 2.5272, 34.4397, 30.7894, 95.80, 0.5092, 1450.71, 155.20, 110.2, 5.85, 6.7, 52
2008/04/22, 00:37:43, 1289.00, 0.00, 0.59, 1.10, 1016.4, 67.9555300, -14.1811450, , 156.10, 12.31, 153.20, 1017.27, 0.20, 0.0, 38.72, 91.46, 95.9, 347, 16.0, 30.78840, 34.44170, 2.5242, 34.4417, 30.7884, 96.40, 0.5175, 1450.75, 154.10, 127.0, 5.83, 10.1, 52
2008/04/22, 00:38:43, 1285.00, 0.00, 0.64, 1.10, 1016.3, 67.9524000, -14.1773670, , 155.10, 12.51, 153.00, 1017.33, 0.10, 0.0, 38.72, 91.37, 95.9, 341, 10.9, 30.77880, 34.44330, 2.5117, 34.4433, 30.7788, 96.10, 0.5178, 1450.75, 153.30, 104.0, 5.97, 5.7, 52
2008/04/22, 00:39:43, 1289.00, 0.00, 0.62, 1.10, 1016.3, 67.9492930, -14.1734070, , 153.10, 12.74, 152.90, 1017.23, -0.30, 0.0, 38.72, 91.53, 95.8, 343, 11.5, 30.78290, 34.43590, 2.5233, 34.4359, 30.7829, 97.00, 0.5077, 1450.71, 156.20, 108.9, 5.36, 6.1, 52
2008/04/22, 00:40:44, 1287.00, 0.00, 0.51, 1.10, 1016.4, 67.9461750, -14.1695580, , 155.80, 12.71, 152.50, 1017.27, 0.00, 0.0, 38.72, 91.51, 95.8, 349, 14.5, 30.78540, 34.43600, 2.5261, 34.4360, 30.7854, 98.80, 0.4925, 1450.64, 156.90, 128.9, 5.68, 8.4, 52
2008/04/22, 00:41:43, 1287.00, 0.00, 0.67, 1.10, 1016.3, 67.9430200, -14.1655580, , 154.70, 12.48, 152.70, 1017.38, 0.00, 0.0, 38.72, 91.63, 95.9, 347, 13.4, 30.78020, 34.43550, 2.5205, 34.4355, 30.7802, 97.60, 0.4805, 1450.58, 157.90, 123.4, 5.80, 7.6, 52
2008/04/22, 00:42:43, 0.00, 0.00, 0.51, 1.10, 1016.3, 67.9399780, -14.1616950, , 153.70, 12.33, 153.10, 1017.28, 0.10, 0.0, 38.72, 91.44, 95.8, 344, 11.1, 30.78560, 34.43300, 2.5290, 34.4330, 30.7856, 98.00, 0.4713, 1450.53, 157.40, 109.7, 5.22, 5.3, 52
2008/04/22, 00:43:43, 1285.00, 0.00, 0.67, 1.10, 1016.2, 67.9368870, -14.1577630, , 152.50, 12.26, 152.50, 1017.34, 0.10, 0.0, 38.72, 91.53, 95.8, 346, 12.7, 30.80220, 34.43460, 2.5466, 34.4346, 30.8022, 98.00, 0.4638, 1450.50, 156.90, 120.3, 5.55, 6.8, 52
2008/04/22, 00:44:44, 1286.00, 0.00, 0.64, 1.10, 1016.3, 67.9338070, -14.1538170, , 155.70, 12.05, 153.90, 1017.30, -0.20, 0.0, 38.72, 91.51, 95.8, 344, 13.1, 30.83330, 34.43620, 2.5808, 34.4362, 30.8333, 98.20, 0.4626, 1450.49, 157.80, 119.8, 5.90, 7.4, 52
2008/04/22, 00:45:43, 1287.00, 0.00, 0.53, 1.10, 1016.2, 67.9306650, -14.1498970, , 153.40, 12.02, 152.80, 1017.27, 0.00, 0.0, 38.72, 91.58, 95.8, 343, 11.9, 30.82890, 34.43620, 2.5758, 34.4362, 30.8289, 98.00, 0.4646, 1450.50, 155.20, 111.6, 5.50, 6.2, 52
2008/04/22, 00:46:43, 1285.00, 0.00, 0.73, 1.10, 1016.2, 67.9276530, -14.1459100, , 154.00, 12.18, 153.20, 1017.22, -0.10, 0.0, 38.72, 91.56, 95.8, 346, 13.6, 30.83360, 34.43690, 2.5806, 34.4369, 30.8336, 97.00, 0.4696, 1450.52, 155.30, 123.2, 6.03, 7.8, 52
2008/04/22, 00:47:43, 1282.00, 0.00, 0.56, 1.10, 1016.2, 67.9245170, -14.1419880, , 156.50, 12.24, 153.40, 1017.18, 0.00, 0.0, 38.72, 91.61, 95.8, 344, 12.0, 30.83080, 34.43480, 2.5792, 34.4348, 30.8308, 97.00, 0.4749, 1450.55, 157.30, 116.6, 5.80, 6.1, 52
2008/04/22, 00:48:43, 1280.00, 0.00, 0.70, 1.10, 1016.3, 67.9215270, -14.1380230, , 153.80, 12.15, 153.80, 1017.20, 0.00, 0.0, 38.72, 91.49, 95.8, 341, 11.2, 30.82240, 34.43470, 2.5697, 34.4347, 30.8224, 100.70, 0.4804, 1450.57, 152.10, 106.8, 5.91, 6.0, 52
2008/04/22, 00:49:43, 0.00, 0.00, 0.76, 1.10, 1016.3, 67.9185020, -14.1340000, , 152.00, 12.14, 152.50, 1017.19, 0.10, 0.0, 38.72, 91.46, 95.8, 347, 13.3, 30.79950, 34.43420, 2.5439, 34.4342, 30.7995, 102.20, 0.4897, 1450.62, 151.50, 122.6, 6.08, 7.6, 52
2008/04/22, 00:50:43, 1280.00, 0.00, 0.62, 1.10, 1016.3, 67.9154850, -14.1300200, , 153.50, 11.90, 155.10, 1017.26, -0.10, 0.0, 38.72, 91.44, 95.8, 344, 12.6, 30.79430, 34.43950, 2.5330, 34.4395, 30.7943, 104.00, 0.4980, 1450.66, 157.00, 117.6, 5.76, 6.9, 52
2008/04/22, 00:51:43, 1280.00, 0.00, 0.62, 1.10, 1016.2, 67.9124650, -14.1261370, , 153.70, 11.85, 153.50, 1017.25, 0.10, 0.0, 38.72, 91.44, 95.8, 347, 12.9, 30.78850, 34.44420, 2.5221, 34.4442, 30.7885, 105.20, 0.5016, 1450.68, 155.00, 123.6, 5.66, 6.8, 52
2008/04/22, 00:52:43, 1281.00, 0.00, 0.62, 1.10, 1016.2, 67.9093880, -14.1221180, , 152.30, 12.43, 152.70, 1017.25, 0.20, 0.0, 38.72, 91.44, 95.8, 344, 12.0, 30.79400, 34.44390, 2.5285, 34.4439, 30.7940, 103.70, 0.5043, 1450.70, 156.00, 115.7, 5.88, 6.4, 52
2008/04/22, 00:53:44, 1283.00, 0.00, 0.67, 1.10, 1016.1, 67.9064130, -14.1182080, , 153.20, 12.57, 153.90, 1017.24, -0.20, 0.0, 38.72, 91.46, 95.8, 349, 15.8, 30.79210, 34.44090, 2.5292, 34.4409, 30.7921, 102.20, 0.5055, 1450.70, 157.50, 129.5, 5.72, 9.6, 52
2008/04/22, 00:54:43, 1285.00, 0.00, 0.64, 1.10, 1016.1, 67.9033850, -14.1142930, , 152.60, 12.20, 153.30, 1017.27, -0.10, 0.0, 38.72, 91.37, 95.7, 348, 16.7, 30.79050, 34.44640, 2.5223, 34.4464, 30.7905, 101.00, 0.5022, 1450.69, 155.80, 130.0, 6.13, 10.8, 52
2008/04/22, 00:55:43, 1281.00, 0.00, 0.67, 1.10, 1016.2, 67.9003800, -14.1103570, , 153.70, 12.49, 154.80, 1017.15, 0.00, 0.0, 38.72, 91.49, 95.7, 348, 15.1, 30.80860, 34.44140, 2.5476, 34.4414, 30.8086, 99.50, 0.4996, 1450.68, 156.50, 129.1, 5.99, 9.2, 52
2008/04/22, 00:56:43, 1284.00, 0.00, 0.78, 1.10, 1016.2, 67.8973430, -14.1065400, , 152.20, 12.65, 152.40, 1017.26, -0.10, 0.0, 38.72, 91.49, 95.7, 348, 17.3, 30.82150, 34.44520, 2.5589, 34.4452, 30.8215, 99.50, 0.4982, 1450.67, 152.70, 128.9, 5.91, 11.4, 52
2008/04/22, 00:57:44, 1285.00, 0.00, 0.62, 1.10, 1016.3, 67.8943400, -14.1026450, , 153.80, 11.85, 153.40, 1017.27, 0.10, 0.0, 38.72, 91.46, 95.7, 344, 13.7, 30.82500, 34.44560, 2.5627, 34.4456, 30.8250, 100.40, 0.4980, 1450.67, 155.50, 118.7, 5.94, 8.2, 52
2008/04/22, 00:58:43, 1282.00, 0.00, 0.73, 1.10, 1016.3, 67.8912980, -14.0987850, , 155.10, 11.72, 153.90, 1017.24, 0.00, 0.0, 38.72, 91.49, 95.7, 342, 10.8, 30.83110, 34.44580, 2.5693, 34.4458, 30.8311, 100.00, 0.4976, 1450.67, 155.20, 108.8, 6.10, 5.6, 52
2008/04/22, 00:59:43, 1283.00, 0.00, 0.70, 1.10, 1016.3, 67.8882970, -14.0949030, , 152.10, 12.23, 153.60, 1017.25, 0.20, 0.0, 38.72, 91.34, 95.7, 344, 12.3, 30.84320, 34.44410, 2.5848, 34.4441, 30.8432, 100.70, 0.4973, 1450.67, 158.30, 117.0, 5.51, 6.6, 52
2008/04/22, 01:00:44, 1282.00, 0.00, 0.67, 1.10, 1016.3, 67.8853230, -14.0911130, , 153.40, 12.24, 153.10, 1017.24, 0.00, 0.0, 38.72, 91.37, 95.7, 343, 11.8, 30.85930, 34.44320, 2.6040, 34.4432, 30.8593, 101.90, 0.5007, 1450.68, 157.60, 113.3, 5.78, 6.2, 52
2008/04/22, 01:01:43, 1283.00, 0.00, 0.70, 1.10, 1016.3, 67.8823120, -14.0872380, , 152.20, 11.61, 152.90, 1017.25, 0.00, 0.0, 38.72, 91.37, 95.7, 343, 11.6, 30.86540, 34.44110, 2.6130, 34.4411, 30.8654, 101.90, 0.5076, 1450.71, 155.40, 112.7, 5.85, 6.3, 52
2008/04/22, 01:02:44, 1281.00, 0.00, 0.73, 1.10, 1016.3, 67.8793050, -14.0834200, , 156.00, 12.14, 153.90, 1017.33, 0.20, 0.0, 38.72, 91.37, 95.7, 342, 12.1, 30.87020, 34.44270, 2.6170, 34.4427, 30.8702, 100.70, 0.5195, 1450.77, 158.40, 112.9, 5.40, 6.6, 52
2008/04/22, 01:03:43, 1285.00, 0.00, 0.67, 1.10, 1016.3, 67.8763370, -14.0794550, , 152.10, 12.03, 151.90, 1017.31, -0.10, 0.0, 38.72, 91.30, 95.7, 342, 10.7, 30.87220, 34.44010, 2.6217, 34.4401, 30.8722, 99.70, 0.5334, 1450.83, 151.10, 107.3, 5.85, 5.5, 52
2008/04/22, 01:04:44, 0.00, 0.00, 0.70, 1.10, 1016.1, 67.8733500, -14.0756980, , 152.60, 11.83, 153.00, 1017.24, -0.10, 0.0, 38.72, 91.30, 95.6, 344, 13.1, 30.87650, 34.44260, 2.6244, 34.4426, 30.8765, 99.20, 0.5446, 1450.88, 155.20, 119.0, 5.26, 7.6, 52
2008/04/22, 01:05:43, 1284.00, 0.00, 0.64, 1.10, 1016.3, 67.8703470, -14.0717770, , 153.70, 12.73, 153.10, 1017.22, 0.00, 0.0, 38.72, 91.27, 95.6, 344, 14.3, 30.86390, 34.44170, 2.6108, 34.4417, 30.8639, 98.20, 0.5531, 1450.92, 156.60, 121.4, 5.75, 8.7, 52
2008/04/22, 01:06:43, 1281.00, 0.00, 0.67, 1.10, 1016.2, 67.8673370, -14.0679330, , 154.50, 11.78, 153.20, 1017.22, -0.10, 0.0, 38.72, 91.30, 95.6, 341, 11.3, 30.87340, 34.44220, 2.6212, 34.4422, 30.8734, 99.20, 0.5595, 1450.94, 157.10, 109.2, 5.59, 6.0, 52
2008/04/22, 01:07:43, 1278.00, 0.00, 0.64, 1.10, 1016.3, 67.8643170, -14.0640050, , 154.40, 11.69, 152.20, 1017.20, -0.10, 0.0, 38.72, 91.27, 95.6, 343, 10.8, 30.87600, 34.44090, 2.6253, 34.4409, 30.8760, 100.40, 0.5646, 1450.97, 157.10, 108.5, 5.23, 5.3, 52
2008/04/22, 01:08:43, 1282.00, 0.00, 0.64, 1.20, 1016.2, 67.8612120, -14.0600370, , 151.80, 12.06, 152.50, 1017.31, 0.00, 0.0, 38.72, 91.25, 95.6, 344, 11.5, 30.87000, 34.44270, 2.6169, 34.4427, 30.8700, 99.50, 0.5685, 1450.98, 156.40, 110.6, 5.37, 6.0, 52
2008/04/22, 01:09:43, 1280.00, 0.00, 0.67, 1.20, 1016.3, 67.8582130, -14.0562030, , 154.00, 12.27, 153.60, 1017.33, 0.10, 0.0, 38.72, 91.37, 95.6, 345, 10.9, 30.87120, 34.44380, 2.6172, 34.4438, 30.8712, 99.20, 0.5723, 1451.00, 161.80, 114.8, 5.60, 5.2, 52
2008/04/22, 01:10:43, 1288.00, 0.00, 0.78, 1.20, 1016.2, 67.8551630, -14.0523330, , 154.50, 12.43, 152.50, 1017.21, 0.00, 0.0, 38.72, 91.34, 95.6, 348, 13.8, 30.86920, 34.44280, 2.6158, 34.4428, 30.8692, 99.50, 0.5758, 1451.02, 162.30, 126.9, 5.95, 8.1, 52
2008/04/22, 01:11:43, 1288.00, 0.00, 0.76, 1.20, 1016.2, 67.8520720, -14.0483950, , 154.70, 12.06, 154.30, 1017.16, 0.10, 0.0, 38.72, 91.34, 95.6, 346, 12.5, 30.89680, 34.44270, 2.6476, 34.4427, 30.8968, 99.70, 0.5796, 1451.04, 163.20, 120.9, 5.54, 6.6, 52
2008/04/22, 01:12:43, 1290.00, 0.00, 0.87, 1.30, 1016.2, 67.8490280, -14.0446670, , 154.60, 12.35, 152.30, 1017.23, -0.10, 0.0, 38.72, 91.34, 95.6, 343, 10.6, 30.93920, 34.44240, 2.6963, 34.4424, 30.9392, 98.50, 0.5826, 1451.05, 158.30, 108.3, 5.98, 5.7, 52
2008/04/22, 01:13:44, 1290.00, 0.00, 0.81, 1.30, 1016.3, 67.8460200, -14.0409570, , 155.70, 12.14, 153.60, 1017.12, 0.10, 0.0, 38.72, 91.27, 95.5, 342, 11.4, 30.94650, 34.44520, 2.7020, 34.4452, 30.9465, 98.20, 0.5858, 1451.06, 161.60, 111.8, 5.44, 6.0, 52
2008/04/22, 01:14:43, 1292.00, 0.00, 0.81, 1.30, 1016.3, 67.8429650, -14.0370680, , 155.80, 12.58, 153.30, 1017.24, 0.00, 0.0, 38.72, 91.25, 95.5, 343, 10.6, 30.94930, 34.44320, 2.7072, 34.4432, 30.9493, 96.70, 0.5892, 1451.08, 160.60, 109.2, 5.46, 5.0, 52
2008/04/22, 01:15:43, 1295.00, 0.00, 0.78, 1.20, 1016.3, 67.8398950, -14.0331130, , 154.20, 12.58, 152.90, 1017.24, -0.20, 0.0, 38.72, 91.15, 95.5, 347, 13.1, 30.95270, 34.43920, 2.7148, 34.4392, 30.9527, 94.80, 0.5931, 1451.10, 161.80, 122.6, 4.98, 7.1, 52
2008/04/22, 01:16:44, 1297.00, 0.00, 0.73, 1.20, 1016.3, 67.8367970, -14.0292270, , 154.60, 12.47, 152.40, 1017.27, -0.10, 0.2, 38.73, 91.15, 95.5, 342, 11.5, 30.95780, 34.44160, 2.7184, 34.4416, 30.9578, 94.80, 0.5954, 1451.10, 157.80, 108.8, 5.16, 6.1, 52
2008/04/22, 01:17:44, 1299.00, 0.00, 0.78, 1.20, 1016.3, 67.8337130, -14.0252650, , 154.20, 12.17, 152.00, 1017.32, -0.10, 0.0, 38.73, 91.13, 95.5, 345, 12.2, 30.94320, 34.44380, 2.6996, 34.4438, 30.9432, 97.00, 0.5956, 1451.10, 154.30, 116.4, 5.26, 6.7, 52
2008/04/22, 01:18:44, 1298.00, 0.00, 0.81, 1.20, 1016.3, 67.8306230, -14.0213600, , 153.90, 12.40, 151.80, 1017.20, -0.20, 0.0, 38.73, 91.20, 95.5, 340, 11.1, 30.95210, 34.44210, 2.7115, 34.4421, 30.9521, 98.00, 0.5928, 1451.10, 155.40, 101.5, 4.79, 5.9, 52
2008/04/22, 01:19:43, 1306.00, 0.00, 0.73, 1.20, 1016.2, 67.8275680, -14.0172470, , 154.70, 12.83, 153.50, 1017.26, -0.10, 0.0, 38.73, 91.10, 95.5, 342, 10.9, 30.94310, 34.43590, 2.7068, 34.4359, 30.9431, 98.80, 0.5872, 1451.06, 155.80, 105.5, 5.16, 5.4, 52
2008/04/22, 01:20:43, 1314.00, 0.00, 0.81, 1.20, 1016.3, 67.8245120, -14.0132450, , 153.80, 11.82, 154.30, 1017.31, 0.00, 0.0, 38.73, 91.18, 95.4, 343, 10.3, 30.95350, 34.43790, 2.7168, 34.4379, 30.9535, 97.30, 0.5818, 1451.04, 158.00, 107.6, 5.27, 4.9, 52
2008/04/22, 01:21:43, 1335.00, 0.00, 0.84, 1.20, 1016.2, 67.8214350, -14.0093730, , 152.10, 12.35, 151.80, 1017.33, 0.10, 0.0, 38.73, 91.13, 95.5, 340, 10.4, 30.95290, 34.43960, 2.7146, 34.4396, 30.9529, 96.70, 0.5775, 1451.02, 157.40, 99.4, 5.10, 5.4, 52
2008/04/22, 01:22:43, 1364.00, 0.00, 0.84, 1.20, 1016.3, 67.8183450, -14.0054000, , 155.20, 12.36, 153.90, 1017.25, 0.20, 0.0, 38.73, 91.08, 95.4, 345, 12.3, 30.97990, 34.43520, 2.7497, 34.4352, 30.9799, 95.80, 0.5769, 1451.02, 158.80, 117.5, 4.98, 6.5, 52
2008/04/22, 01:23:44, 0.00, 0.00, 0.84, 1.30, 1016.2, 67.8152450, -14.0013730, , 152.90, 12.35, 151.80, 1017.17, -0.10, 0.0, 38.73, 91.03, 95.4, 343, 11.2, 30.95810, 34.43580, 2.7241, 34.4358, 30.9581, 95.20, 0.5811, 1451.04, 157.20, 110.4, 5.51, 5.7, 52
2008/04/22, 01:24:43, 0.00, 0.00, 0.84, 1.30, 1016.3, 67.8121480, -13.9972200, , 149.80, 12.17, 151.70, 1017.30, 0.00, 0.0, 38.73, 91.10, 95.4, 342, 11.6, 30.96140, 34.43880, 2.7252, 34.4388, 30.9614, 94.80, 0.5879, 1451.06, 154.30, 108.4, 5.31, 6.3, 52
2008/04/22, 01:25:44, 1659.00, 0.00, 0.84, 1.30, 1016.3, 67.8090550, -13.9930730, , 151.80, 12.89, 152.20, 1017.21, 0.10, 0.0, 38.73, 91.03, 95.4, 337, 10.3, 30.96710, 34.43870, 2.7317, 34.4387, 30.9671, 94.80, 0.5988, 1451.12, 155.70, 93.8, 5.22, 5.3, 52
2008/04/22, 01:26:43, 1650.00, 0.00, 0.78, 1.30, 1016.3, 67.8059280, -13.9890170, , 155.10, 12.80, 153.70, 1017.26, 0.10, 0.0, 38.73, 90.86, 95.4, 342, 11.3, 30.96390, 34.43530, 2.7312, 34.4353, 30.9639, 95.50, 0.6178, 1451.20, 159.10, 110.6, 4.83, 5.6, 52
2008/04/22, 01:27:43, 0.00, 0.00, 0.87, 1.20, 1016.3, 67.8027820, -13.9849880, , 154.00, 12.48, 153.30, 1017.18, 0.00, 0.0, 38.73, 90.86, 95.4, 339, 11.9, 30.96390, 34.43680, 2.7299, 34.4368, 30.9639, 96.70, 0.6433, 1451.32, 154.50, 105.6, 4.78, 6.5, 52
2008/04/22, 01:28:43, 1645.00, 0.00, 0.84, 1.20, 1016.3, 67.7996320, -13.9808620, , 154.00, 12.89, 154.20, 1017.31, -0.20, 0.0, 38.73, 91.01, 95.3, 340, 10.5, 30.95560, 34.43700, 2.7201, 34.4370, 30.9556, 97.30, 0.6709, 1451.44, 153.80, 101.4, 4.94, 5.1, 52
2008/04/22, 01:29:43, 1642.00, 0.00, 0.78, 1.20, 1016.3, 67.7964670, -13.9769200, , 154.20, 12.41, 151.80, 1017.19, -0.10, 0.0, 38.73, 90.89, 95.3, 342, 11.2, 30.93970, 34.43830, 2.7007, 34.4383, 30.9397, 97.00, 0.6980, 1451.56, 153.00, 108.2, 4.95, 5.7, 52
2008/04/22, 01:30:44, 1636.00, 0.00, 0.76, 1.20, 1016.3, 67.7933070, -13.9728680, , 157.00, 13.00, 156.70, 1017.28, -0.30, 0.0, 38.73, 90.89, 95.3, 342, 11.3, 30.94590, 34.43810, 2.7081, 34.4381, 30.9459, 98.20, 0.7252, 1451.69, 160.40, 111.9, 4.76, 5.6, 52